06 20 97 09 80
0,00 
06 20 97 09 80
0,00 

PAL Run 2023 - Les résultats

Merci à tous les participants

23, Avr 2023

Le PAL Run 2023 s'achève, voici les résultats

Le soleil aura été au rendez-vous le temps des cours PAL Run et Magic PAL Run.

Au classement féminin :

  1. Elise FERREIRA (Montluçon Athlé) en 38'02'' (moyenne de 15,15km/h)
  2. Laura BENOIT (non licenciée) en 39'56'' (moyenne de 14,43km/h)
  3. Marjolaine BOUCHRI (non licenciée) en 42'18'' (moyenne de 13,62km/h)

Au classement masculin :

  1. Rémi RAYMOND (EA Bassin Athlé) en 31'57'' (moyenne de 18,04km/h)
  2. Mathis DEVAUX (EAMYA) en 32'47'' (moyenne de 17,57km/h)
  3. Aurélien MAUBLANC (non licencié) en 33'00'' (moyenne de 17,46km/h)
  • Les résultats complets (en .pdf et ci-dessous : Lien

Class. Géné.NomPrénomSexeTps arrondiClubClassement par Cat.Nom CatégorieNationClassement par Sexe
1494RAYMONDRémiM00:31:57EA Bassin Athlé1SeniorFRA1
2210DEVAUXMathisM00:32:47EAMYA1EspoirFRA2
3282MAUBLANCAurélienM00:33:002SeniorFRA3
4469COUTYAntoineM00:34:063SeniorFRA4
5381BOULIGNATChristopheM00:34:074SeniorFRA5
6495REVENIAUDDamienM00:34:455SeniorFRA6
7286MARTINRomainM00:35:48SAMBA1Master 0FRA7
8102GAUNEGuillaumeM00:36:212EspoirFRA8
9177GARDENTThéoM00:37:051JuniorFRA9
10488DELAPORTEBenoitM00:37:142Master 0FRA10
11460FERREIRAEliseF00:38:02Montluçon Athlé1SeniorFRA1
12417CHARBYNicolasM00:38:166SeniorFRA11
1347BUVATGuillaumeM00:38:193EspoirFRA12
14231AMEGLIOPierreM00:38:263Master 0FRA13
15474ZAWADZKIAlexandreM00:38:53EACCD7SeniorFRA14
16109GUYPierreM00:38:548SeniorFRA15
17345LAURENTEricM00:39:031Master 3FRA16
18188JACQUINLéonM00:39:161CadetFRA17
19468CHENEFredM00:39:441Master 1FRA18
20350DUFOURSimonM00:39:499SeniorFRA19
21198BENOITLauraF00:39:562SeniorFRA2
22449BUSSEROLLESThierryM00:39:56EACCD2Master 3FRA20
23146BLANCHETAlexisM00:40:2410SeniorFRA21
24385PECOTStèveM00:40:432Master 1FRA22
2552ESCOYEZAntoineM00:40:4411SeniorFRA23
26380DULACYannickM00:40:453Master 1FRA24
27470HEYRAUDSimonM00:40:5512SeniorFRA25
28413PARENTONJérômeM00:40:594Master 1FRA26
2956DURANDAlbanM00:41:0213SeniorFRA27
30176GARDENTThierryM00:41:04RCV1Master 4FRA28
3112HAWKINSHubertM00:41:063Master 3FRA29
3236ANTONIOPhilippeM00:41:071Master 2FRA30
33273DENNEFrédéricM00:41:10CA Cusset2Master 2FRA31
34275AUGERClémentM00:41:164Master 0FRA32
35294DEL CAMPOSimonM00:41:195Master 0FRA33
36236ROUGIERKevinM00:41:254EspoirFRA34
3750RECHARTEOlivierM00:41:26UACB6Master 0FRA35
38419HEYRAULTThomasM00:41:287Master 0FRA36
39247TAQUEGuillaumeM00:41:3414SeniorFRA37
40455ALLAIXLoïcM00:41:4115SeniorFRA38
41365MONINFlorentM00:41:45AON3Master 2FRA39
42472RAYMONDDamienM00:42:085EspoirFRA40
4317LYON-RABETCédricM00:42:128Master 0FRA41
44427BOUCHRIMarjolaineF00:42:181Master 0FRA3
45256MORELNicolasM00:42:199Master 0FRA42
46316DAUPHINAlexandreM00:42:24Auvergne Trail Nature16SeniorFRA43
47254REVILLIERJéromeM00:42:405Master 1FRA44
48287CHAMPOMIERValentinM00:42:432CadetFRA45
49297JOUETCorentinM00:42:4317SeniorFRA46
50110MARIONFrançoisM00:42:512Master 4FRA47
51483MALASSAGNEAnthonyM00:42:5110Master 0FRA48
52139RENAUDLudoM00:43:106Master 1FRA49
53223OLIVIERAnneF00:43:12CS Cosne3SeniorFRA4
54293SIMONJonathanM00:43:157Master 1FRA50
55362CHAMOUXLaurentM00:43:224Master 2FRA51
56415MARCHALAlexandreM00:43:246EspoirFRA52
57386BOURETSébastienM00:43:345Master 2FRA53
58133SIMONGéraldM00:43:368Master 1FRA54
59423SINELArthurM00:43:4518SeniorFRA55
60500PAUTONNIERJeremyM00:44:0111Master 0FRA56
61479FERREIRAPhilippeM00:44:063Master 4FRA57
62228BUCHETPascalM00:44:164Master 3FRA58
6358GILBERTJérômeM00:44:179Master 1FRA59
64374GOMMECélineF00:44:171Master 2FRA5
65502DE SOULTRAITDenysM00:44:3819SeniorFRA60
66351LAGARDIENAntoninM00:44:4220SeniorFRA61
67394GINNAINRomainM00:44:4412Master 0FRA62
68463METZLERSébastienM00:44:4721SeniorFRA63
69211DESSERTChristopheM00:44:5910Master 1FRA64
70206GAUMAINMathieuM00:45:0011Master 1FRA65
7135BOUCHARDHugoM00:45:0822SeniorFRA66
72406IMBERTStéphanieF00:45:16EACCD2Master 2FRA6
73424LAZZERINIFabriceM00:45:175Master 3FRA67
74327FINATP JM00:45:2712Master 1FRA68
7551CONVERTRobinM00:45:3123SeniorFRA69
76429HARTMANNMarianneF00:45:404SeniorFRA7
77119CERQUEIRA ANTUNESValérieF00:45:45EAMYA1Master 1FRA8
78321PAUTHONNIERThierryM00:45:474Master 4FRA70
79300FOUQUETLaureF00:45:501Master 4FRA9
80154DHOIDorianM00:45:5224SeniorFRA71
81478CLEMENTEArnaudM00:45:546Master 2FRA72
82132ANDRELaurentM00:45:55US La Chatre6Master 3FRA73
83445PETERSSylvainM00:45:5613Master 1FRA74
84192SISTIMarcM00:45:575Master 4FRA75
85416CHARBYCamilleF00:46:035SeniorFRA10
86134GAGNEAlexisM00:46:092JuniorFRA76
87173JOGUETMarcM00:46:09CA Cusset6Master 4FRA77
88174PAPONETGillesM00:46:137Master 3FRA78
89299FOUQUETArnaudM00:46:157Master 4FRA79
90439JEANThierryM00:46:198Master 4FRA80
91504JEAMBEAU MARIAUFlorianM00:46:2225SeniorFRA81
92209MALTETAurélienM00:46:3114Master 1FRA82
93485THELYElsaF00:46:311CadetFRA11
9472VALENTINGavinM00:46:387Master 2FRA83
95383PEPYThomasM00:46:4626SeniorFRA84
9619COSSAYMickaëlM00:46:488Master 2FRA85
97384MEITERCédricM00:46:5327SeniorFRA86
98376CHARLINJonathanM00:46:5528SeniorFRA87
998NEBOUTPierre AlexisM00:46:5629SeniorFRA88
100358BOLNETSébastienM00:46:59EACCD8Master 3FRA89
101492REUREFabienM00:47:0215Master 1FRA90
102158EDOUARDYannickM00:47:189Master 3FRA91
103349SURELLéonardM00:47:373CadetFRA92
104434BAUMJonathanM00:47:4313Master 0FRA93
105390TANTONNicolasM00:47:4614Master 0FRA94
106462VIALJulienM00:47:4630SeniorFRA95
107311CHEMINATCédricM00:47:4916Master 1FRA96
108219LACROIXSébastienM00:47:519Master 2FRA97
109388FERNANDESNicolasM00:47:5615Master 0FRA98
110187REYLoïcM00:47:5917Master 1FRA99
111230PROTAT LARDETLisonF00:47:596SeniorFRA12
1126CHABOTDimitryM00:48:0031SeniorFRA100
11314MARTIN LANGLAISLaurineF00:48:047SeniorFRA13
114222JARRIXJulienM00:48:0518Master 1FRA101
115399BLOYARDVictorM00:48:1419Master 1FRA102
11689VANDEWALLEPriscillaF00:48:172Master 1FRA14
117171PACTAT-DARGENTTurboM00:48:2232SeniorFRA103
118403GRANDDanielM00:48:239Master 4FRA104
119438BARIOTDavidM00:48:2620Master 1FRA105
12073JORDANNETQuentinM00:48:30ASA DU BERRY33SeniorFRA106
121151MILLETAmélieF00:48:32Sancerre Running8SeniorFRA15
122444DUMASPierreM00:48:4234SeniorFRA107
123301JACQUETINDamienM00:48:4416Master 0FRA108
124400BLOYARDCélineF00:48:443Master 1FRA16
125514CARLIERSébastienM00:48:4521Master 1FRA109
126328BOURETChristopheM00:48:4910Master 2FRA110
127205GAUMAINAnneF00:48:564Master 1FRA17
128136LINARDDamienM00:48:5717Master 0FRA111
12911MALLETOphélieF00:49:009SeniorFRA18
130272HUGUETMickaëlM00:49:0118Master 0FRA112
131325ESTEVESEvaF00:49:041JuniorFRA19
132418SZATKOWSKIPierreM00:49:0435SeniorFRA113
133355POMPIERJeremyM00:49:1336SeniorFRA114
134331KULIGOWSKILouisM00:49:1637SeniorFRA115
13534DELOSTMarineF00:49:18EACCD10SeniorFRA20
13657LARIVEYannisM00:49:2622Master 1FRA116
137431FIXMathildeF00:49:30EACC Dompierre2CadetFRA21
138430FIXChristianM00:49:30EACC Dompierre11Master 2FRA117
139241BOURACHOTLaureenF00:49:302Master 0FRA22
14018SORENSENLaurieF00:49:3011SeniorFRA23
14116LANGLAISFabienM00:49:3619Master 0FRA118
14279ZWICKNicolasM00:49:3638SeniorFRA119
143363PAULFlorianM00:49:3739SeniorFRA120
144180CANTATThibautM00:49:3920Master 0FRA121
145226JOLYJean-LucM00:49:4310Master 3FRA122
14678BUSSEROLLESLéaF00:49:4312SeniorFRA24
147458WILMThibaudM00:49:5140SeniorFRA123
14845CŒURCélineF00:49:52USSP3Master 0FRA25
149191DUCHAMPJordanM00:49:5341SeniorFRA124
150155BOUILLOTRomainM00:49:5542SeniorFRA125
151249FROBERTValentinM00:49:5943SeniorFRA126
152464DESJACQUESGuillaumeM00:50:0244SeniorFRA127
15353CARVALHALSergeM00:50:0321Master 0FRA128
154499ALMEIDANicolasM00:50:0745SeniorFRA129
155487OUSSINChristopheM00:50:0911Master 3FRA130
156253ZWICKLauraF00:50:1013SeniorFRA26
157179TAUCHThibaultM00:50:1146SeniorFRA131
158266DOLHENTMarcM00:50:1347SeniorFRA132
159340AMOURMattéoM00:50:177EspoirFRA133
160319ESTEVESPhilippeM00:50:1712Master 2FRA134
161391SUCHAUDAxelleF00:50:171EspoirFRA27
162298BOUILLECamilleF00:50:17CS Cosne2EspoirFRA28
16339QUIBLIERPascaleF00:50:201Master 3FRA29
16485BAIBAAurélieF00:50:20Annonay Jogging5Master 1FRA30
165197ROLLEVeroniqueF00:50:262Master 4FRA31
166131?Dossard#131M00:50:2848SeniorFRA135
167447CROZIERKevinM00:50:2949SeniorFRA136
168511NAUDINCédricM00:50:2950SeniorFRA137
169339CHEMINHenryM00:50:3123Master 1FRA138
17086PERRIERHéloiseF00:50:3614SeniorFRA32
171489GRUET BASSYAuroreF00:50:3815SeniorFRA33
172475COULONAngéliqueF00:51:054Master 0FRA34
173501DE SOULTRAITBenoîtM00:51:0822Master 0FRA139
174326GOFFROYXavierM00:51:2813Master 2FRA140
175379MASSONAmbreF00:51:375Master 0FRA35
176159BALLENGHEINMarieF00:51:376Master 1FRA36
177182CHAPUAurélieF00:51:417Master 1FRA37
178183CHAPUBenjaminM00:51:4124Master 1FRA141
17967COURCIERCéliaF00:51:536Master 0FRA38
180481VERNOISNicolasM00:51:5751SeniorFRA142
181373CHEVRIERSandrineF00:51:5716SeniorFRA39
182267GUENEBAUTRomainM00:52:0423Master 0FRA143
18382PERRINJean ClaudeM00:52:0610Master 4FRA144
184364JACOBFabienM00:52:0724Master 0FRA145
185153IVARTYannM00:52:0725Master 0FRA146
186407GIRARDONSabineF00:52:08USP COMMENTRY3Master 2FRA40
18792LATROUPERebeccaF00:52:0917SeniorFRA41
188304ALONSOJean LucM00:52:1514Master 2FRA147
18997BRUNELHeathcliffM00:52:1952SeniorFRA148
190476PETITLaurenF00:52:2818SeniorFRA42
191245MONTGILLARDEstelleF00:52:347Master 0FRA43
19291LAVENANTNicolasM00:52:4215Master 2FRA149
19359MAGROLaurèneF00:52:5019SeniorFRA44
194453TERRIERJeromeM00:52:5326Master 0FRA150
195309GALMARDRomainM00:52:5425Master 1FRA151
196140DUMONTSandrineF00:52:598Master 1FRA45
197353DAL-MOLINGuillaumeM00:53:0053SeniorFRA152
198352DAL-MOLINMarie-CarolineF00:53:0020SeniorFRA46
199420BARICHARDOcéaneF00:53:0721SeniorFRA47
200199CHAUSSINEmmanuelM00:53:1027Master 0FRA153
201507CLEMOTAurélienM00:53:1554SeniorFRA154
202457MANUELJulienM00:53:2228Master 0FRA155
203168ROBINSONPhilipM00:53:2611Master 4FRA156
20488MARZEAdelineF00:53:268Master 0FRA48
205170RIOTTEAnne-SophieF00:53:2722SeniorFRA49
206341YALCINBetulF00:53:2723SeniorFRA50
207512RAYNALJustineF00:53:27Volvic Natura Trail24SeniorFRA51
208250PLATRETGuillaumeM00:53:3026Master 1FRA157
20929CAMATTECharlotteF00:53:3125SeniorFRA52
210251PLATRETCindyF00:53:319Master 1FRA53
211160BOUCHEREElsaF00:53:329Master 0FRA54
212225LAURENTCyrilM00:53:3855SeniorFRA158
21326RIVIEREGuillaumeM00:53:4256SeniorFRA159
214127JORDANNETJonathanM00:53:4757SeniorFRA160
215343MATUSSIERESimonM00:53:4929Master 0FRA161
216330CHARBONNIERCamilleF00:53:523EspoirFRA55
217484THOMASNathalieF00:53:564Master 2FRA56
21855COULONOlivierM00:53:57CA Cusset12Master 3FRA162
219220GRANDLorianeF00:53:5926SeniorFRA57
220278LEMAIRENicoM00:54:0058SeniorFRA163
221335MABRUAnne-LaureF00:54:0327SeniorFRA58
222303BARNAUDMathildeF00:54:0528SeniorFRA59
223138SALLESJulieF00:54:0829SeniorFRA60
224412AUBISSEJeanneF00:54:1030SeniorFRA61
225213DESIAGESarahF00:54:1231SeniorFRA62
22699TRAVARDJules-AlexandreM00:54:163JuniorFRA164
227252MORANDValérieF00:54:192Master 3FRA63
228185JACQUINBérangèreF00:54:21EAMYA10Master 1FRA64
229333DE CONYClémenceF00:54:2132SeniorFRA65
230387BLANCHETManonF00:54:3333SeniorFRA66
231193GIBERTMarineF00:54:3334SeniorFRA67
23243CHERONAxelM00:54:3359SeniorFRA165
233395MIGNONEloïseF00:54:3335SeniorFRA68
234414BACHELETAlexandreM00:54:3930Master 0FRA166
235255REVILLIERSophieF00:54:4011Master 1FRA69
236194DELATOURAlexandreM00:54:4027Master 1FRA167
237262AUSSIETTEIsabelleF00:54:413Master 3FRA70
238261AUSSIETTEColineF00:54:4136SeniorFRA71
239482CIVADEMagalieF00:54:4512Master 1FRA72
240108SOURTIAdelineF00:54:4610Master 0FRA73
241107MARCHETTIJulieF00:54:4711Master 0FRA74
242480COMPTONThomasM00:54:4760SeniorFRA168
24393BARRASElisabethF00:54:5113Master 1FRA75
244366PELLEGRINELLILorisM00:54:5231Master 0FRA169
245410UGONNETClémenceF00:54:5237SeniorFRA76
246305BROSSUTOlivierM00:54:53Morvan Oxygène16Master 2FRA170
247467TESSONMarineF00:54:5338SeniorFRA77
2482BOUTONNETSébastienM00:54:5632Master 0FRA171
249271EUZETEvaF00:54:5814Master 1FRA78
250370KAMMERERMichelM00:55:001Master 5FRA172
251274HEMERYStéphanieF00:55:01FREVENT OLYMPIC CLUB12Master 0FRA79
2529OVISTEClaireF00:55:0339SeniorFRA80
253308GAYJonathanM00:55:0728Master 1FRA173
254491TARAYohannM00:55:1461SeniorFRA174
25542CHERONMéganeF00:55:2240SeniorFRA81
256368TRAVARDTiffanyF00:55:2441SeniorFRA82
257162SIMONSAuroreF00:55:2842SeniorFRA83
258347DUCHALETMaxenceM00:55:308EspoirFRA175
259157GAGNEAUDClémenceF00:55:3043SeniorFRA84
260302JACQUETINOdileF00:55:3813Master 0FRA85
261152BAUMANClaraF00:55:3944SeniorFRA86
262175PAPONETVincentM00:55:429EspoirFRA176
263506BLANCHETJulienM00:55:4462SeniorFRA177
264456REVILLIERCamilleF00:55:463CadetFRA87
265306ALONSO MARTINEZFrédéricM00:56:0117Master 2FRA178
266264GRIMAUDArnaudM00:56:0213Master 3FRA179
267356MARTINWilfriedM00:56:0463SeniorFRA180
268320MEROTGregoryM00:56:0510EspoirFRA181
269405VILLENEUVEMichelM00:56:081Master 6FRA182
27071MULLERBenjaminM00:56:1129Master 1FRA183
271283RABANAmandineF00:56:1245SeniorFRA88
272263RABANBilouM00:56:1314Master 3FRA184
273317ANTOINEThomasM00:56:1315Master 3FRA185
274338BERGERRégisM00:56:1518Master 2FRA186
275471CIVALLEROAdrienM00:56:1733Master 0FRA187
276260AUSSIETTEFrédéricM00:56:2216Master 3FRA188
27733GAGNENinaF00:56:2846SeniorFRA89
27868BOUGARELRomaneF00:56:2947SeniorFRA90
279513MOLLARDJoel LouisM00:56:3612Master 4FRA189
280409MICHELMarieF00:56:4014Master 0FRA91
281122GOUGNOTMarieF00:56:4015Master 0FRA92
282235LAVIGNE-MASSONNatachaF00:56:4648SeniorFRA93
283234CHICAUDManonF00:56:484EspoirFRA94
284172RAFFINATStéphaneM00:56:48ASPPT 3619Master 2FRA190
285296PICARDSylvainM00:56:4920Master 2FRA191
28666NAVARRO-CAZENAVENadiaF00:56:551Master 5FRA95
28722JOUVENEAUPhilippeM00:56:5834Master 0FRA192
288425ROPIOTJean JacquesM00:57:012Master 6FRA193
289145GRANDSophieF00:57:0649SeniorFRA96
290432METENIEREloïseF00:57:0650SeniorFRA97
291493SIRETCharlotteF00:57:065Master 2FRA98
292270GAMESSHervéM00:57:0717Master 3FRA194
293229MONNOTFannyF00:57:07CA Cusset16Master 0FRA99
294354FERRYManonF00:57:0851SeniorFRA100
29569MARIONLaetitiaF00:57:1052SeniorFRA101
296237COURTINATPierre-AugustinM00:57:114JuniorFRA195
297196DESBONNETSChloéF00:57:1117Master 0FRA102
298440LE COLLENYvonM00:57:113Master 6FRA196
29970MARIONMathieuM00:57:1264SeniorFRA197
300426MATHIEUJérômeM00:57:2621Master 2FRA198
30113PLACIEREmilieF00:57:2953SeniorFRA103
302369POIRIERMarieF00:57:3354SeniorFRA104
303141EVEILLEDelphineF00:57:4115Master 1FRA105
30440CLAVELINLaurenceF00:57:424Master 3FRA106
30541TABANOUJéromeM00:57:4222Master 2FRA199
306169BARDETMartialM00:57:4313Master 4FRA200
30765RAPOSOFlorenceF00:57:4755SeniorFRA107
308156FELIXAurélieF00:57:4956SeniorFRA108
309164COUDRIERAudreyF00:57:4957SeniorFRA109
310214GRUET BASSYSandyF00:57:5116Master 1FRA110
311126CHAGNONFrédéricM00:58:0718Master 3FRA201
31221LEVESQUEMaximeM00:58:1535Master 0FRA202
313268CURYJérômeM00:58:1965SeniorFRA203
314114FONDARDGeoffreyM00:58:3166SeniorFRA204
31537LEPLAY ORIOTMaudeF00:58:3718Master 0FRA111
316281MOLARDMathildeF00:58:3858SeniorFRA112
317359VERNISSEPascaleF00:58:425Master 3FRA113
31877ODDOPaulineF00:58:5359SeniorFRA114
319121PASCALPierreM00:58:5530Master 1FRA205
320269MINARDJean-ChristopheM00:58:5719Master 3FRA206
321361HAVARDLolaF00:59:0160SeniorFRA115
322124CHAGNONRémyM00:59:045JuniorFRA207
32328BURGEVINJulienM00:59:0567SeniorFRA208
324452BUSSEROLLESAnaïsF00:59:1361SeniorFRA116
325461PAGNONLéaF00:59:135EspoirFRA117
32632DEVOSMarionF00:59:1519Master 0FRA118
327190PORTAILMarineF00:59:1662SeniorFRA119
3285BECKNatachaF00:59:2063SeniorFRA120
3294DOTIGNY SARTONIRaphaëlM00:59:2068SeniorFRA209
33038PROTETMarieF00:59:2264SeniorFRA121
331125CANTATMélanieF00:59:2365SeniorFRA122
332310CUNYPierre-EmmanuelM00:59:2331Master 1FRA210
333276DA COSTAFrédéricM00:59:2432Master 1FRA211
334277BOUCHAUDArnaudM00:59:2436Master 0FRA212
335279POUPONPerrineF00:59:2466SeniorFRA123
336280SOULIERBrunoM00:59:2520Master 3FRA213
337143QUETELChristopheM00:59:2637Master 0FRA214
33815REYNEMadelineF00:59:2767SeniorFRA124
33983THEVENETGuillaumeM00:59:3023Master 2FRA215
340329TRANCHECOSTEAudeF00:59:3020Master 0FRA125
341505NEBOUTJordanM00:59:3269SeniorFRA216
342442JACQUETINAnne-SophieF00:59:3717Master 1FRA126
343497MIALLIERVéroniqueF00:59:442Master 5FRA127
344291PICARDPatriciaF00:59:576Master 2FRA128
345290VEYRIEREHervéM01:00:0124Master 2FRA217
346201BERTHAUTHélèneF01:00:0368SeniorFRA129
347202BERTHAUTGérardM01:00:044Master 6FRA218
348503COLLONGETTEAlexandreM01:00:1670SeniorFRA219
349332MOULINThibaultM01:00:1871SeniorFRA220
35075COUSTETMarineF01:00:4521Master 0FRA130
351477LETORTMelissaF01:00:5469SeniorFRA131
352144FONTAINESophieF01:01:0122Master 0FRA132
35323VITAIlonaF01:01:0470SeniorFRA133
354259DOLHENTChristopheM01:01:152Master 5FRA221
355265GODIGNONClaudeM01:01:1521Master 3FRA222
35674DAVAUDAnthonyM01:01:1722Master 3FRA223
35784COULONVanessaF01:01:17CA Cusset18Master 1FRA134
358186REYElodieF01:01:2823Master 0FRA135
359166THEUILChloéF01:01:2871SeniorFRA136
360314VOISINJean-ClaudeM01:01:3523Master 3FRA224
361443JACQUETINMarionF01:01:5624Master 0FRA137
362150PAQUERIAUDAudreyF01:02:0372SeniorFRA138
36349SAULNIERStéphanieF01:02:0473SeniorFRA139
364411ROSSIMarionF01:02:0574SeniorFRA140
365123CHAUSSEPascaleF01:02:07US LA CHATRE6Master 3FRA141
366498MIALLIERDominiqueM01:02:081Master 7FRA225
367113JEROMEJulieF01:02:1125Master 0FRA142
368396SIMONINSylvieF01:02:123Master 4FRA143
369397SIMONINPascalM01:02:123Master 5FRA226
370398SIMONINMathieuM01:02:1272SeniorFRA227
3713GOULERETAudreyF01:02:2075SeniorFRA144
372473MERCIERNoémieF01:02:2126Master 0FRA145
373115BARROTCoralieF01:02:222JuniorFRA146
374428PETERDelphineF01:02:337Master 2FRA147
375243GINNAINChristopheM01:02:3414Master 4FRA228
376195LACHAISEAliceF01:02:3976SeniorFRA148
377285TOURNAUDCleliaF01:02:4027Master 0FRA149
378200PETITALLOTAlainM01:02:552Master 7FRA229
379389MARTINTiphanieF01:02:5677SeniorFRA150
380227LEGRANDWalterM01:03:07CA Cusset73SeniorFRA230
381315HERAINFleurF01:03:1528Master 0FRA151
382101LUDOTGrégoryM01:03:2074SeniorFRA231
383357LEPETZChloéF01:03:2078SeniorFRA152
38498RAFFAILLACRomainM01:03:2175SeniorFRA232
385100NABHANJustineF01:03:2179SeniorFRA153
386204JOSSEBeleyF01:03:2229Master 0FRA154
387284MILLARDChachaF01:03:2230Master 0FRA155
388218LECHERPatrickM01:03:2515Master 4FRA233
389112BAUJARDLauretteF01:03:2919Master 1FRA156
390163ETIENNEAstridF01:03:3080SeniorFRA157
391111VRINJenniferF01:03:3220Master 1FRA158
392217LECHERVéroniqueF01:03:348Master 2FRA159
393244ROUSSELThomasM01:03:426JuniorFRA234
394167MATHIAUDSylvieF01:03:443Master 5FRA160
395454FARJOTAdélieF01:03:546EspoirFRA161
396248VIVIERAnne-LiseF01:03:557EspoirFRA162
39762THEVENETElisabethF01:04:02AJT SAONE ET LOIRE7Master 3FRA163
398181CANTATSimonM01:04:1838Master 0FRA235
399147PASSERATCarineF01:04:2221Master 1FRA164
400118FOURNAISELaetitiaF01:04:319Master 2FRA165
401116SAULZETFabienneF01:04:3131Master 0FRA166
402117SAULZETAurélieF01:04:4122Master 1FRA167
403120LE CHEVILLIERCharlèneF01:04:5123Master 1FRA168
404392GUILLONLéanneF01:04:588EspoirFRA169
405393LAUPRETREMaelF01:04:5981SeniorFRA170
406451TESSELucyF01:05:2210Master 2FRA171
407448PERRINJodyM01:05:2239Master 0FRA236
408344MAINAUDBernardM01:05:2616Master 4FRA237
409312BILLONYanM01:05:3040Master 0FRA238
41048LE RHUNCindyF01:05:3224Master 1FRA172
411318BIZETJeromeM01:05:3425Master 2FRA239
412130GIRAUDMichaelM01:05:4026Master 2FRA240
413128GIRAUDValérieF01:05:4011Master 2FRA173
414129GIRAUDClaraF01:05:404CadetFRA174
41554DUROCHMélanieF01:05:4132Master 0FRA175
416240COLLINAdélaïdeF01:06:0982SeniorFRA176
417239MUCHEMBLEDCamilleF01:06:0983SeniorFRA177
418224BOUCHERELauraF01:06:1133Master 0FRA178
419450DOUBECKMarionF01:06:1934Master 0FRA179
420178LAVIGNE-MASSONStéphanieF01:06:248Master 3FRA180
42161PARILLAUDAurélieF01:06:4235Master 0FRA181
42260HOUCHOTMatthieuM01:06:4241Master 0FRA241
42330MORIZETNoémieF01:06:45GIEN ATHLE MARATHON84SeniorFRA182
424422GUERETXyphonM01:06:5076SeniorFRA242
42546THIEBAUTMargotF01:06:5085SeniorFRA183
426142EVEILLEAlainM01:07:2317Master 4FRA243
427257DAILLYSophieF01:07:4536Master 0FRA184
428465POUZOLSSandrineF01:07:4625Master 1FRA185
429466COGNARDAurélieF01:07:4737Master 0FRA186
430382THIVENTAuroreF01:07:4726Master 1FRA187
431433LEVEQUEBenoitM01:07:5211EspoirFRA244
432342MILETMickaëlM01:07:5277SeniorFRA245
433238COURTINATEloïseF01:07:549EspoirFRA188
43481GUENZIThessF01:08:085CadetFRA189
435401PILLETMichaelM01:08:1724Master 3FRA246
436402PILLETFlorenceF01:08:189Master 3FRA190
437375VALERYAudreyF01:08:1986SeniorFRA191
438184MUNOZDianouF01:08:2287SeniorFRA192
439322RIBIERAnneF01:08:2638Master 0FRA193
440103LABORDEDominiqueM01:08:2842Master 0FRA247
44131DEVOSPaulineF01:08:5088SeniorFRA194
44224SALSONValérieF01:09:024Master 4FRA195
443378LASSETGuillaumeM01:09:2078SeniorFRA248
444377LASSETPaulineF01:09:2039Master 0FRA196
445288FAUROUXAnaïsF01:09:2089SeniorFRA197
446367VAUDAUXSandraF01:09:2240Master 0FRA198
447149BIGNONAlexiaF01:09:556CadetFRA199
448148BIGNONMélanieF01:09:5510EspoirFRA200
449208NIARFEIXMarineF01:10:1490SeniorFRA201
45096AGARDAudreyF01:10:1541Master 0FRA202
451348SURELThierryM01:10:2425Master 3FRA249
452334BONNASSIEUX-ECCHERPaulineF01:10:25EAMYA42Master 0FRA203
453165GAZURVirginieF01:10:3827Master 1FRA204
454135BLANCHOTAnne-ClaireF01:10:3943Master 0FRA205
45544MARLYElodieF01:11:4691SeniorFRA206
456436GALEAChristianM01:12:0533Master 1FRA250
457441BENBIASarahF01:12:0992SeniorFRA207
4587NEBOUTPerrineF01:12:1293SeniorFRA208
459371AUBERGERIsabelleF01:12:245Master 4FRA209
460258CHERILLATAnaïsF01:13:0894SeniorFRA210
461421SAHALSianetaaF01:13:1395SeniorFRA211
462295GAILLEGéraldineF01:14:5912Master 2FRA212
463289OBRIOTCharlotteF01:15:0196SeniorFRA213
464203OBRIOTLolotteM01:15:0179SeniorFRA251
46525CAMBELBernadetteF01:15:154Master 5FRA214
46620CROZEDelphineF01:15:1628Master 1FRA215
467346RESSOTLaureF01:15:24EAMYA97SeniorFRA216
468360RENOUXCamilleF01:15:5898SeniorFRA217
46990MULLERNoémieF01:17:5299SeniorFRA218
470404MARCHANDBastienM01:17:5280SeniorFRA252
471459GRÜNSCHLAGERThomasM01:17:595Master 6FRA253
47280PREAUDCandiceF01:18:0711EspoirFRA219
473232MONGENETCharlotteF01:18:073JuniorFRA220
474446CROZIERCindyF01:18:3412EspoirFRA221

Le Pal Run 2020 - Coureurs

Merci à tous et rendez-vous l'an prochain !

Stade Hector Rolland
1, allée des Soupirs
03000 MOULINS
06 20 97 09 80
Contactez-nous
Le Comité Départemental d’Athlétisme de l’Allier est une structure déconcentrée de la Fédération Française d’Athlétisme et fait partie de la Ligue Auvergne Rhône-Alpes d’Athlétisme.
© 2022-
2024
Comité Départemental d'Athlétisme de l'Allier
Sportivement réalisé par YUJO / EDGINEERING EWS
Run Athlé 03 - Comité Départemental d'Athlétisme de l'Allier Top